Previsão horária em Aliganj

Hoje, 25 Janeiro, Segunda-feira

Tempo Temperatura Precipitação Vento Pressão Humidade
00:00 +11°C° 0 mm 3 m/s 747 mmHg 71%
01:00 +11°C° 0 mm 3 m/s 746 mmHg 74%
02:00 +10°C° 0 mm 3 m/s 746 mmHg 76%
03:00 +10°C° 0 mm 2 m/s 746 mmHg 78%
04:00 +9°C° 0 mm 2 m/s 746 mmHg 81%
05:00 +8°C° 0 mm 2 m/s 746 mmHg 80%
06:00 +9°C° 0 mm 2 m/s 747 mmHg 77%
07:00 +10°C° 0 mm 2 m/s 748 mmHg 73%
08:00 +10°C° 0 mm 2 m/s 748 mmHg 69%
09:00 +14°C° 0 mm 2 m/s 749 mmHg 62%
10:00 +16°C° 0 mm 2 m/s 749 mmHg 54%
11:00 +19°C° 0 mm 2 m/s 749 mmHg 47%
12:00 +20°C° 0 mm 2 m/s 749 mmHg 42%
13:00 +21°C° 0 mm 2 m/s 748 mmHg 36%
14:00 +21°C° 0 mm 2 m/s 747 mmHg 31%
15:00 +20°C° 0 mm 2 m/s 747 mmHg 35%
16:00 +19°C° 0 mm 2 m/s 746 mmHg 39%
17:00 +17°C° 0 mm 2 m/s 746 mmHg 44%
18:00 +16°C° 0 mm 2 m/s 746 mmHg 47%
19:00 +15°C° 0 mm 2 m/s 747 mmHg 50%
20:00 +13°C° 0 mm 2 m/s 747 mmHg 53%
21:00 +13°C° 0 mm 2 m/s 747 mmHg 56%
22:00 +12°C° 0 mm 2 m/s 747 mmHg 59%
23:00 +10°C° 0 mm 2 m/s 747 mmHg 62%

Amanhã, 26 Janeiro, Terça-feira

Tempo Temperatura Precipitação Vento Pressão Humidade
00:00 +10°C° 0 mm 2 m/s 747 mmHg 63%
01:00 +9°C° 0 mm 2 m/s 746 mmHg 64%
02:00 +9°C° 0 mm 2 m/s 746 mmHg 66%
03:00 +9°C° 0 mm 2 m/s 746 mmHg 64%
04:00 +8°C° 0 mm 2 m/s 746 mmHg 63%
05:00 +8°C° 0 mm 2 m/s 746 mmHg 61%
06:00 +9°C° 0 mm 2 m/s 747 mmHg 58%
07:00 +10°C° 0 mm 2 m/s 747 mmHg 54%
08:00 +12°C° 0 mm 2 m/s 748 mmHg 51%
09:00 +14°C° 0 mm 2 m/s 748 mmHg 47%
10:00 +17°C° 0 mm 2 m/s 748 mmHg 43%
11:00 +19°C° 0 mm 2 m/s 748 mmHg 39%
12:00 +20°C° 0 mm 2 m/s 747 mmHg 37%
13:00 +21°C° 0 mm 2 m/s 747 mmHg 34%
14:00 +23°C° 0 mm 2 m/s 746 mmHg 31%
15:00 +21°C° 0 mm 2 m/s 746 mmHg 35%
16:00 +20°C° 0 mm 2 m/s 745 mmHg 40%
17:00 +18°C° 0 mm 2 m/s 745 mmHg 44%
18:00 +17°C° 0 mm 2 m/s 746 mmHg 46%
19:00 +15°C° 0 mm 2 m/s 746 mmHg 48%
20:00 +14°C° 0 mm 2 m/s 746 mmHg 50%
21:00 +13°C° 0 mm 2 m/s 746 mmHg 50%
22:00 +13°C° 0 mm 2 m/s 746 mmHg 51%
23:00 +12°C° 0 mm 2 m/s 746 mmHg 51%

Depois de amanhã, 27 Janeiro, Quarta-feira

Tempo Temperatura Precipitação Vento Pressão Humidade
00:00 +12°C° 0 mm 2 m/s 746 mmHg 51%
01:00 +12°C° 0 mm 2 m/s 746 mmHg 52%
02:00 +10°C° 0 mm 2 m/s 746 mmHg 52%
03:00 +10°C° 0 mm 2 m/s 746 mmHg 54%
04:00 +9°C° 0 mm 2 m/s 746 mmHg 56%
05:00 +9°C° 0 mm 2 m/s 746 mmHg 58%
06:00 +10°C° 0 mm 2 m/s 746 mmHg 58%
07:00 +12°C° 0 mm 2 m/s 747 mmHg 58%
08:00 +13°C° 0 mm 2 m/s 747 mmHg 58%
09:00 +15°C° 0 mm 2 m/s 748 mmHg 52%
10:00 +18°C° 0 mm 2 m/s 748 mmHg 45%
11:00 +20°C° 0 mm 2 m/s 748 mmHg 39%
12:00 +21°C° 0 mm 2 m/s 747 mmHg 36%
13:00 +23°C° 0 mm 2 m/s 747 mmHg 33%
14:00 +24°C° 0 mm 1 m/s 746 mmHg 30%
15:00 +23°C° 0 mm 1 m/s 746 mmHg 34%
16:00 +21°C° 0 mm 1 m/s 745 mmHg 38%
17:00 +20°C° 0 mm 1 m/s 745 mmHg 42%
18:00 +18°C° 0 mm 1 m/s 745 mmHg 44%
19:00 +16°C° 0 mm 1 m/s 746 mmHg 45%
20:00 +14°C° 0 mm 1 m/s 746 mmHg 47%
21:00 +14°C° 0 mm 1 m/s 746 mmHg 48%
22:00 +13°C° 0 mm 1 m/s 746 mmHg 48%
23:00 +13°C° 0 mm 1 m/s 746 mmHg 49%

28 Janeiro, Quinta-feira

Tempo Temperatura Precipitação Vento Pressão Humidade
00:00 +12°C° 0 mm 1 m/s 746 mmHg 50%
01:00 +12°C° 0 mm 1 m/s 746 mmHg 50%
02:00 +10°C° 0 mm 2 m/s 746 mmHg 51%
03:00 +11°C° 0 mm 1 m/s 746 mmHg 52%
04:00 +10°C° 0 mm 1 m/s 745 mmHg 52%
05:00 +9°C° 0 mm 1 m/s 745 mmHg 53%
06:00 +11°C° 0 mm 1 m/s 746 mmHg 51%
07:00 +12°C° 0 mm 1 m/s 747 mmHg 49%
08:00 +12°C° 0 mm 0 m/s 748 mmHg 47%
09:00 +14°C° 0 mm 0 m/s 748 mmHg 42%
10:00 +17°C° 0 mm 0 m/s 748 mmHg 38%
11:00 +22°C° 0 mm 1 m/s 749 mmHg 33%
12:00 +23°C° 0 mm 1 m/s 748 mmHg 31%
13:00 +23°C° 0 mm 1 m/s 747 mmHg 29%
14:00 +24°C° 0 mm 1 m/s 747 mmHg 26%
15:00 +22°C° 0 mm 1 m/s 746 mmHg 30%
16:00 +21°C° 0 mm 1 m/s 746 mmHg 34%
17:00 +18°C° 0 mm 2 m/s 746 mmHg 37%
18:00 +17°C° 0 mm 2 m/s 746 mmHg 39%
19:00 +16°C° 0 mm 2 m/s 747 mmHg 40%
20:00 +14°C° 0 mm 2 m/s 747 mmHg 41%
21:00 +14°C° 0 mm 2 m/s 747 mmHg 42%
22:00 +13°C° 0 mm 2 m/s 747 mmHg 42%
23:00 +13°C° 0 mm 2 m/s 748 mmHg 43%

29 Janeiro, Sexta-feira

Tempo Temperatura Precipitação Vento Pressão Humidade
00:00 +12°C° 0 mm 2 m/s 747 mmHg 45%
01:00 +12°C° 0 mm 2 m/s 747 mmHg 47%
02:00 +10°C° 0 mm 2 m/s 747 mmHg 49%
03:00 +10°C° 0 mm 2 m/s 747 mmHg 50%
04:00 +9°C° 0 mm 2 m/s 747 mmHg 52%
05:00 +9°C° 0 mm 2 m/s 747 mmHg 53%
06:00 +10°C° 0 mm 2 m/s 747 mmHg 52%
07:00 +11°C° 0 mm 1 m/s 748 mmHg 50%
08:00 +12°C° 0 mm 1 m/s 748 mmHg 49%
09:00 +15°C° 0 mm 1 m/s 749 mmHg 44%
10:00 +17°C° 0 mm 2 m/s 749 mmHg 39%
11:00 +20°C° 0 mm 2 m/s 749 mmHg 34%
12:00 +21°C° 0 mm 2 m/s 748 mmHg 32%
13:00 +23°C° 0 mm 2 m/s 747 mmHg 30%
14:00 +24°C° 0 mm 2 m/s 746 mmHg 29%
15:00 +21°C° 0 mm 2 m/s 746 mmHg 33%
16:00 +20°C° 0 mm 2 m/s 746 mmHg 37%
17:00 +19°C° 0 mm 2 m/s 746 mmHg 42%
18:00 +17°C° 0 mm 2 m/s 746 mmHg 42%
19:00 +16°C° 0 mm 2 m/s 746 mmHg 42%
20:00 +13°C° 0 mm 3 m/s 747 mmHg 43%
21:00 +12°C° 0 mm 3 m/s 747 mmHg 41%
22:00 +12°C° 0 mm 3 m/s 747 mmHg 39%
23:00 +11°C° 0 mm 3 m/s 747 mmHg 37%

30 Janeiro, Sábado

Tempo Temperatura Precipitação Vento Pressão Humidade
00:00 +10°C° 0 mm 3 m/s 747 mmHg 38%
01:00 +10°C° 0 mm 3 m/s 746 mmHg 38%
02:00 +9°C° 0 mm 3 m/s 746 mmHg 39%
03:00 +9°C° 0 mm 3 m/s 746 mmHg 40%
04:00 +8°C° 0 mm 3 m/s 746 mmHg 41%
05:00 +8°C° 0 mm 3 m/s 746 mmHg 42%
06:00 +9°C° 0 mm 3 m/s 746 mmHg 42%
07:00 +10°C° 0 mm 3 m/s 747 mmHg 42%
08:00 +10°C° 0 mm 3 m/s 747 mmHg 42%
09:00 +13°C° 0 mm 3 m/s 748 mmHg 37%
10:00 +17°C° 0 mm 3 m/s 748 mmHg 31%
11:00 +20°C° 0 mm 4 m/s 748 mmHg 26%
12:00 +21°C° 0 mm 4 m/s 747 mmHg 25%
13:00 +22°C° 0 mm 4 m/s 747 mmHg 24%
14:00 +23°C° 0 mm 4 m/s 746 mmHg 22%
15:00 +21°C° 0 mm 4 m/s 746 mmHg 27%
16:00 +19°C° 0 mm 3 m/s 745 mmHg 32%
17:00 +18°C° 0 mm 3 m/s 745 mmHg 37%
18:00 +16°C° 0 mm 3 m/s 745 mmHg 38%
19:00 +13°C° 0 mm 3 m/s 746 mmHg 39%
20:00 +13°C° 0 mm 2 m/s 746 mmHg 40%
21:00 +12°C° 0 mm 2 m/s 746 mmHg 40%
22:00 +12°C° 0 mm 2 m/s 747 mmHg 41%
23:00 +10°C° 0 mm 3 m/s 747 mmHg 41%
Mostrar mais

Necessitamos do seu Consentimento

A Meteoprog e os seus Fornecedores de Serviços podem armazenar e aceder a dados pessoais como cookies, identificadores do dispositivo ou outras tecnologias semelhantes existentes no seu dispositivo e processar estes dados para personalizar conteúdos e anúncios, assim como funcionalidades nas redes sociais e análise de tráfego.

  • Armazenar e/ou aceder a informações no seu dispositivo

    Os cookies, identificadores do dispositivo ou outras informações podem ser armazenados ou acedidos no seu dispositivo, para os fins acima indicados.

  • Anúncios e conteúdos personalizados, medição de anúncios e conteúdos, dados sobre o público-alvo e desenvolvimento de produtos

    Os anúncios e os conteúdos podem ser personalizados com base num perfil. Podem ser adicionados dados adicionais para uma maior personalização dos anúncios e dos conteúdos. A eficácia dos anúncios e dos conteúdos pode ser medida. Podem ser obtidas informações sobre o público que visualizou os anúncios e os conteúdos. Estes dados podem ser usados para desenvolver ou melhorar sistemas, softwares ou a experiência do utilizador.

Ao clicar em "Eu concordo”, permitirá o uso de cookies, identificadores do dispositivo e web beacons mencionados ou outras tecnologias semelhantes. As configurações do navegador do seu dispositivo podem ser alteradas.

Para certos fins, podem ser invocados interesses legítimos ao invés de consentimento. Pode ler mais informação sobre este assunto na nossa Política de Privacidade e Cookies.